Flag for Norway Weather past 2 weeks in Elverum, Norway

Now
25 °F

Cold.


Feels Like: 25 °F
Forecast: 31 / 35 °F
Wind: 1 mph from South

Location: Haugedalshogda

Current Time: Feb 28, 2015 at 2:38:12 AM

Latest Report: Feb 28, 2015 at 1:00 AM


Visibility: N/A

Pressure: 29.86 "Hg

Humidity: 95%

Dew point: 23 °F

Location of ElverumLocation

Historic Weather in Elverum — Graph

°F

Elverum temperature yesterday

Maximum temperature yesterday: 36 °F (at 3:00 PM)
Minimum temperature yesterday: 26 °F (at 11:00 PM)
Average temperature yesterday: 33 °F

Past Weeks' High & Low Weather Summary

 TemperatureHumidityPressure
High45 °F (Feb 19, 12:00 PM)96% (Feb 13, 4:00 AM)30.61 "Hg (Feb 13, 4:00 AM)
Low6 °F (Feb 22, 11:00 PM)47% (Feb 20, 1:00 PM)29.00 "Hg (Feb 23, 3:00 PM)
Average29 °F87%29.76 "Hg
* Reported Feb 13 1:00 AM — Feb 28 1:00 AM, Elverum, Weather by CustomWeather, © 2015

Note: Actual official high and low records may vary slightly from our data, if they occured in-between our weather recording intervals... More about our weather records

Advertising

Elverum weather history for previous 24 hours

 ConditionsComfort  
Time TempWeatherWind HumidityBarometerVisibility
1:00 AM
Sat, Feb 28
25 °FCold.1 mph95%29.86 "HgN/A
12:00 AM26 °FChilly.1 mph94%29.86 "HgN/A
11:00 PM
Fri, Feb 27
26 °FChilly.2 mph92%29.86 "HgN/A
9:00 PM32 °FChilly.5 mph90%29.84 "HgN/A
8:00 PM31 °FChilly.7 mph90%29.83 "HgN/A
7:00 PM31 °FChilly.5 mph90%29.82 "HgN/A
6:00 PM31 °FChilly.1 mph89%29.82 "HgN/A
5:00 PM34 °FChilly.3 mph80%29.80 "HgN/A
4:00 PM35 °FChilly.5 mph80%29.79 "HgN/A
3:00 PM36 °FChilly.3 mph77%29.78 "HgN/A
2:00 PM35 °FChilly.3 mph85%29.77 "HgN/A
1:00 PM34 °FChilly.3 mph87%29.77 "HgN/A
12:00 PM34 °FChilly.3 mph86%29.76 "HgN/A
11:00 AM34 °FChilly.2 mph87%29.76 "HgN/A
10:00 AM33 °FChilly.3 mph92%29.75 "HgN/A
9:00 AM33 °FChilly.2 mph91%29.75 "HgN/A
8:00 AM33 °FChilly.2 mph91%29.74 "HgN/A
7:00 AM33 °FChilly.5 mph91%29.73 "HgN/A
6:00 AM33 °FChilly.5 mph91%29.73 "HgN/A
5:00 AM34 °FChilly.5 mph89%29.72 "HgN/A
2:00 AM34 °FChilly.5 mph89%29.73 "HgN/A
Weather by CustomWeather, © 2015

See weather overviewHow to use our weather pages